Voltar ao catálogo

STARLINK-32693

AtivoComunicaçõesVLEO
NORAD 62437·PAYLOAD·🇺🇸 United States

Lançado Dec 29, 2024 de Vandenberg Space Force Base

Loading…

Próximas Passagens (próximas 24 horas)

TLE

AtualizadoSource: CelesTrak SupGP

Época: Sep 15, 2026, 02:23 UTC

1 62437C 24251F   26258.09979167 -.00064697  00000+0 -19115-2 0  2587
2 62437  53.1577 170.6451 0001299  91.1155 338.5185 15.34423237    17

Acompanhe STARLINK-32693 em tempo real com AllMySat

Download on the App Store